Date String (YYYY-MM-DD hh:mm:ss) UTC,Instrument flags,Ambient pressure (hPa),Sample flow (lpm),Bypass flow (lpm),Sample temperature (°C),Ambient temperature (°C),ASC tube jacket temperature (°C),LED temperature (°C),Box temperature (°C),Sample RH (%),Span deviation,Mass concentration (μg/m³),Mass concentration (μg/m³),Mass concentration (μg/m³)
DateTimeUTC,F1_M11,P_M11,Q1_M11,Q2_M11,T1_M11,T2_M11,T3_M11,T4_M11,T5_M11,U1_M11,ZSPAN_M11,X0_M11,X2_M11,X1_M11
2023-04-22 22:00:00,,0832.3,4.99,0.00,22.6,21.3,00.0,30.9,24.2,15.5,0001.5,0010.37,0008.35,0007.91
2023-04-22 22:01:00,,0832.3,5.00,0.00,22.6,21.3,00.0,30.9,24.2,15.5,0002.3,0010.29,0008.29,0007.89
2023-04-22 22:02:00,,0832.3,4.99,0.00,22.6,21.3,00.0,30.9,24.2,16.0,0002.0,0010.17,0008.24,0007.88
2023-04-22 22:03:00,,0832.3,4.99,0.00,22.6,21.3,00.0,30.9,24.2,15.8,0002.0,0010.09,0008.20,0007.87
2023-04-22 22:04:00,,0832.2,5.00,0.00,22.6,21.3,00.0,30.9,24.2,15.3,0001.2,0010.14,0008.21,0007.87
2023-04-22 22:05:00,,0832.2,5.00,0.00,22.6,21.2,00.0,30.9,24.2,15.2,0000.7,0010.12,0008.21,0007.88
2023-04-22 22:06:00,,0832.2,5.00,0.00,22.6,21.2,00.0,31.0,24.1,15.2,0000.2,0010.19,0008.23,0007.89
2023-04-22 22:07:00,,0832.2,5.00,0.00,22.6,21.1,00.0,30.9,24.1,15.6,0000.1,0010.75,0008.27,0007.90
2023-04-22 22:08:00,,0832.2,5.00,0.00,22.6,21.1,00.0,30.9,24.1,15.6,0000.0,0010.88,0008.28,0007.90
2023-04-22 22:09:00,,0832.2,5.01,0.00,22.6,21.1,00.0,30.9,24.1,15.7,0000.3,0010.91,0008.30,0007.90
2023-04-22 22:10:00,,0832.1,5.00,0.00,22.6,21.1,00.0,30.9,24.1,15.7,-000.1,0011.04,0008.35,0007.92
2023-04-22 22:11:00,,0832.2,5.00,0.00,22.6,21.0,00.0,30.9,24.1,15.5,-000.5,0011.07,0008.37,0007.93
2023-04-22 22:12:00,,0832.2,5.00,0.00,22.5,21.0,00.0,30.9,24.1,15.4,-000.6,0011.08,0008.41,0007.96
2023-04-22 22:13:00,,0832.1,5.00,0.00,22.5,20.9,00.0,30.9,24.0,15.5,-000.4,0011.11,0008.45,0007.98
2023-04-22 22:14:00,,0832.1,4.99,0.00,22.5,20.9,00.0,30.9,24.0,15.2,0000.3,0011.12,0008.46,0008.00
2023-04-22 22:15:00,,0832.1,4.99,0.00,22.4,20.8,00.0,30.9,23.9,15.4,0000.2,0011.21,0008.49,0008.03
2023-04-22 22:16:00,,0832.0,4.99,0.00,22.4,20.8,00.0,30.9,23.9,15.7,0000.2,0011.23,0008.52,0008.04
2023-04-22 22:17:00,,0832.1,4.99,0.00,22.4,20.8,00.0,30.9,23.9,15.7,0000.8,0011.24,0008.54,0008.05
2023-04-22 22:18:00,,0832.1,5.01,0.00,22.4,20.8,00.0,30.9,23.9,15.6,0000.7,0010.81,0008.51,0008.05
2023-04-22 22:19:00,,0832.0,5.01,0.00,22.4,20.8,00.0,30.9,23.9,15.5,0001.8,0010.59,0008.54,0008.07
2023-04-22 22:20:00,,0832.0,5.01,0.00,22.4,20.8,00.0,30.9,23.9,15.6,0002.2,0010.85,0008.55,0008.09
2023-04-22 22:21:00,,0832.0,4.99,0.00,22.3,20.8,00.0,30.8,23.9,15.3,0001.9,0011.01,0008.51,0008.08
2023-04-22 22:22:00,,0832.0,4.99,0.00,22.3,20.7,00.0,30.8,23.9,15.2,0000.0,0011.05,0008.51,0008.07
2023-04-22 22:23:00,,0832.0,5.01,0.00,22.3,20.7,00.0,30.8,23.9,15.1,0000.0,0011.15,0008.49,0008.04
2023-04-22 22:24:00,,0832.0,5.00,0.00,22.3,20.7,00.0,30.8,23.9,15.2,0000.3,0011.08,0008.45,0008.01
2023-04-22 22:25:00,,0832.0,5.00,0.00,22.3,20.7,00.0,30.8,23.9,16.0,0000.4,0011.05,0008.42,0007.99
2023-04-22 22:26:00,,0832.0,5.00,0.00,22.3,20.8,00.0,30.8,23.9,16.5,0001.3,0011.03,0008.39,0007.96
2023-04-22 22:27:00,,0832.0,5.00,0.00,22.3,20.7,00.0,30.8,23.8,15.8,0001.5,0010.99,0008.35,0007.92
2023-04-22 22:28:00,,0832.0,5.00,0.00,22.3,20.7,00.0,30.8,23.8,15.5,0001.4,0010.91,0008.31,0007.89
2023-04-22 22:29:00,,0832.0,5.00,0.00,22.3,20.7,00.0,30.8,23.8,15.4,0001.7,0010.85,0008.26,0007.85
2023-04-22 22:30:00,,0832.0,5.00,0.00,22.2,20.6,00.0,30.8,23.8,15.2,0000.7,0010.76,0008.19,0007.81
2023-04-22 22:31:00,,0832.1,5.00,0.00,22.2,20.6,00.0,30.8,23.8,15.3,0000.6,0010.58,0008.14,0007.76
2023-04-22 22:32:00,,0832.0,5.00,0.00,22.2,20.6,00.0,30.7,23.8,15.8,0000.3,0010.21,0008.14,0007.75
2023-04-22 22:33:00,,0832.0,5.00,0.00,22.2,20.6,00.0,30.7,23.8,15.3,0000.3,0010.16,0008.13,0007.74
2023-04-22 22:34:00,,0832.0,5.00,0.00,22.2,20.6,00.0,30.7,23.8,15.4,0000.5,0010.04,0008.13,0007.75
2023-04-22 22:35:00,,0832.1,5.00,0.00,22.2,20.7,00.0,30.7,23.8,15.7,0000.4,0010.09,0008.19,0007.79
2023-04-22 22:36:00,,0832.1,5.00,0.00,22.3,20.8,00.0,30.7,23.9,15.9,0001.0,0010.17,0008.25,0007.83
2023-04-22 22:37:00,,0832.0,5.00,0.00,22.3,20.8,00.0,30.7,23.9,16.2,0001.6,0010.16,0008.28,0007.86
2023-04-22 22:38:00,,0832.1,5.00,0.00,22.3,20.9,00.0,30.7,23.9,16.3,0001.2,0010.23,0008.32,0007.90
2023-04-22 22:39:00,,0832.1,4.99,0.00,22.3,20.9,00.0,30.7,23.9,16.2,0000.8,0010.26,0008.37,0007.95
2023-04-22 22:40:00,,0832.1,4.99,0.00,22.3,21.0,00.0,30.7,23.9,16.3,0000.3,0010.37,0008.45,0008.01
2023-04-22 22:41:00,,0832.0,5.00,0.00,22.3,21.0,00.0,30.7,23.9,15.9,0000.6,0010.47,0008.54,0008.07
2023-04-22 22:42:00,,0832.1,5.00,0.00,22.3,21.0,00.0,30.7,23.9,16.0,0000.3,0010.46,0008.58,0008.13
2023-04-22 22:43:00,,0832.0,5.00,0.00,22.3,21.0,00.0,30.7,23.9,16.4,0000.6,0010.47,0008.63,0008.18
2023-04-22 22:44:00,,0832.0,5.00,0.00,22.3,21.0,00.0,30.7,23.9,15.9,0000.7,0010.48,0008.66,0008.22
2023-04-22 22:45:00,,0832.0,4.99,0.00,22.3,21.0,00.0,30.7,23.9,16.2,0000.5,0010.56,0008.70,0008.25
2023-04-22 22:46:00,,0832.0,5.01,0.00,22.4,21.0,00.0,30.7,23.9,15.8,0000.3,0010.58,0008.68,0008.25
2023-04-22 22:47:00,,0832.0,5.00,0.00,22.4,21.0,00.0,30.7,23.9,15.9,0000.3,0010.80,0008.65,0008.24
2023-04-22 22:48:00,,0832.0,5.00,0.00,22.4,21.0,00.0,30.7,23.9,16.3,0000.0,0010.86,0008.65,0008.22
2023-04-22 22:49:00,,0832.0,5.01,0.00,22.4,21.0,00.0,30.7,24.0,16.5,-000.1,0010.78,0008.61,0008.21
2023-04-22 22:50:00,,0831.9,5.01,0.00,22.3,20.9,00.0,30.7,23.9,17.0,0000.0,0010.78,0008.61,0008.21
2023-04-22 22:51:00,,0831.9,5.00,0.00,22.3,20.8,00.0,30.7,23.8,16.4,0000.4,0010.81,0008.63,0008.22
2023-04-22 22:52:00,,0831.8,5.00,0.00,22.3,20.7,00.0,30.7,23.8,16.1,0000.1,0010.80,0008.63,0008.22
2023-04-22 22:53:00,,0831.9,4.99,0.00,22.2,20.7,00.0,30.7,23.8,16.6,-000.3,0010.83,0008.64,0008.22
2023-04-22 22:54:00,,0832.3,4.99,0.00,22.2,20.7,00.0,30.7,23.8,16.7,-000.5,0010.89,0008.66,0008.23
2023-04-22 22:55:00,,0832.0,5.00,0.00,22.2,20.6,00.0,30.7,23.8,16.8,-000.8,0010.93,0008.67,0008.22
2023-04-22 22:56:00,,0832.1,5.00,0.00,22.2,20.6,00.0,30.7,23.7,16.5,-000.4,0010.86,0008.66,0008.23
2023-04-22 22:57:00,,0832.0,5.00,0.00,22.2,20.6,00.0,30.7,23.7,16.9,-000.1,0010.95,0008.71,0008.26
2023-04-22 22:58:00,,0831.9,5.01,0.00,22.1,20.5,00.0,30.7,23.6,16.4,-000.3,0010.89,0008.79,0008.29
2023-04-22 22:59:00,,0831.7,5.00,0.00,22.1,20.5,00.0,30.6,23.6,16.7,-000.4,0010.86,0008.81,0008.32
